NI4CE-10 Weather Reports


time (UTC)temp
C
wind
direction
speed
KPH
gust
KPH
rain 1hr
cm
rain 24hr
cm
rain mn
cm
humidity
%
barometer
mb
20260902215254 29 286 3.2 12.9 0.00 0.30 0.28 100 1014.7
20260902215123 29 303 0.0 9.7 0.00 0.30 0.28 100 1014.6
20260902214754 29 303 0.0 9.7 0.00 0.30 0.28 100 1014.6
20260902214609 29 337 4.8 9.7 0.00 0.30 0.28 100 1014.6
20260902214254 29 337 4.8 9.7 0.00 0.30 0.28 100 1014.6
20260902214050 29 292 1.6 4.8 0.00 0.30 0.28 100 1014.4
20260902213754 29 292 1.6 4.8 0.00 0.30 0.28 100 1014.4
20260902213254 29 296 0.0 4.8 0.00 0.30 0.28 100 1014.3
20260902212754 29 344 3.2 11.3 0.00 0.30 0.28 100 1014.4
20260902212257 30 281 4.8 11.3 0.00 0.30 0.28 100 1014.7
20260902212254 30 281 4.8 11.3 0.00 0.30 0.28 100 1014.7
20260902211754 30 302 0.0 11.3 0.00 0.30 0.28 100 1014.9
20260902211257 30 331 1.6 16.1 0.00 0.30 0.28 100 1014.8
20260902211254 30 331 1.6 16.1 0.00 0.30 0.28 100 1014.8
20260902211039 30 330 11.3 11.3 0.00 0.30 0.28 100 1014.6
20260902210754 30 330 11.3 11.3 0.00 0.30 0.28 100 1014.6
20260902210541 30 336 8.0 8.0 0.00 0.30 0.28 100 1014.5
20260902210254 30 336 8.0 8.0 0.00 0.30 0.28 100 1014.5
20260902210039 30 347 6.4 6.4 0.00 0.30 0.28 100 1014.4
20260902205754 30 347 6.4 6.4 0.00 0.30 0.28 100 1014.4
20260902205546 30 330 4.8 11.3 0.00 0.30 0.28 100 1014.5
20260902205254 30 330 4.8 11.3 0.00 0.30 0.28 100 1014.5
20260902205032 30 343 8.0 11.3 0.00 0.30 0.28 100 1014.8
20260902204754 30 343 8.0 11.3 0.00 0.30 0.28 100 1014.8
20260902204254 30 317 3.2 14.5 0.00 0.30 0.28 100 1014.8
20260902203754 30 329 4.8 11.3 0.00 0.30 0.28 100 1014.7
20260902203619 30 350 8.0 12.9 0.00 0.30 0.28 100 1014.7
20260902203254 30 350 8.0 12.9 0.00 0.30 0.28 100 1014.7
20260902203043 30 1 6.4 12.9 0.00 0.30 0.28 100 1014.7
20260902202754 30 1 6.4 12.9 0.00 0.30 0.28 100 1014.7
20260902202618 30 329 1.6 9.7 0.00 0.30 0.28 100 1014.7
20260902202254 30 329 1.6 9.7 0.00 0.30 0.28 100 1014.7
20260902202033 30 305 9.7 12.9 0.00 0.30 0.28 100 1014.8
20260902201754 30 305 9.7 12.9 0.00 0.30 0.28 100 1014.8
20260902201254 30 330 9.7 12.9 0.00 0.30 0.28 100 1014.9
20260902200754 30 336 3.2 9.7 0.00 0.30 0.28 100 1015.0
20260902200541 30 322 6.4 9.7 0.00 0.30 0.28 100 1015.1
20260902200255 30 322 6.4 9.7 0.00 0.30 0.28 100 1015.1
20260902200028 29 348 8.0 12.9 0.00 0.30 0.28 100 1015.2
20260902195754 29 348 8.0 12.9 0.00 0.30 0.28 100 1015.2
20260902195538 29 303 1.6 9.7 0.00 0.30 0.28 100 1015.2
20260902195254 29 303 1.6 9.7 0.00 0.30 0.28 100 1015.2
20260902194754 29 317 8.0 12.9 0.00 0.30 0.28 100 1015.4
20260902194255 29 309 6.4 11.3 0.00 0.30 0.28 100 1015.5
20260902194010 29 348 8.0 14.5 0.00 0.30 0.28 100 1015.5
20260902193755 29 348 8.0 14.5 0.00 0.30 0.28 100 1015.5
20260902193255 30 348 6.4 19.3 0.00 0.30 0.28 100 1015.7
20260902192755 31 358 11.3 16.1 0.00 0.30 0.28 100 1015.6
20260902192255 31 1 9.7 22.5 0.00 0.30 0.28 100 1015.6
20260902192012 32 5 19.3 19.3 0.00 0.30 0.28 100 1015.6
20260902191755 32 5 19.3 19.3 0.00 0.30 0.28 100 1015.6
20260902191255 32 37 12.9 17.7 0.00 0.30 0.28 100 1015.6
20260902191008 32 39 4.8 11.3 0.00 0.30 0.28 100 1015.6
20260902190755 32 39 4.8 11.3 0.00 0.30 0.28 100 1015.6
20260902190255 31 15 6.4 11.3 0.00 0.66 0.28 100 1015.6
20260902190007 31 68 4.8 9.7 0.00 0.66 0.28 100 1015.8
20260902185755 31 68 4.8 9.7 0.00 0.66 0.28 100 1015.8
20260902185255 31 54 6.4 8.0 0.00 0.66 0.28 100 1015.8
20260902185113 31 61 4.8 11.3 0.00 0.66 0.28 100 1015.9
20260902184755 31 61 4.8 11.3 0.00 0.66 0.28 100 1015.9
20260902184255 32 98 9.7 9.7 0.00 0.66 0.28 100 1016.0
20260902183950 33 334 6.4 12.9 0.00 0.66 0.28 100 1016.1
20260902183755 33 334 6.4 12.9 0.00 0.66 0.28 100 1016.1
20260902183255 32 358 6.4 12.9 0.00 0.66 0.28 100 1016.1
20260902182755 32 2 3.2 16.1 0.00 0.66 0.28 100 1016.2
20260902182255 33 355 11.3 11.3 0.00 0.66 0.28 100 1016.3
20260902182022 33 4 3.2 8.0 0.00 0.66 0.28 100 1016.3
20260902181755 33 4 3.2 8.0 0.00 0.66 0.28 100 1016.3
20260902181255 33 30 1.6 12.9 0.00 0.66 0.28 100 1016.3
20260902181133 35 357 11.3 12.9 0.00 0.66 0.28 100 1016.4
20260902180755 35 357 11.3 12.9 0.00 0.66 0.28 100 1016.4
20260902180255 36 99 1.6 12.9 0.00 0.66 0.28 100 1016.5
20260902175755 35 330 8.0 9.7 0.00 0.66 0.28 100 1016.6
20260902175255 34 47 1.6 9.7 0.00 0.66 0.28 100 1016.6
20260902174755 33 70 1.6 12.9 0.00 0.66 0.28 100 1016.7
20260902174255 35 340 11.3 11.3 0.00 0.66 0.28 100 1016.7
20260902174157 35 36 6.4 9.7 0.00 0.66 0.28 100 1016.7
20260902173755 35 36 6.4 9.7 0.00 0.66 0.28 100 1016.7
20260902173321 35 327 9.7 12.9 0.00 0.66 0.28 100 1016.8
20260902173255 35 351 6.4 12.9 0.00 0.66 0.28 100 1016.7
20260902172755 35 327 9.7 12.9 0.00 0.66 0.28 100 1016.8
20260902172255 35 101 4.8 9.7 0.00 0.66 0.28 100 1016.9
20260902172159 35 21 4.8 8.0 0.00 0.66 0.28 100 1017.0
20260902171755 35 21 4.8 8.0 0.00 0.66 0.28 100 1017.0
20260902171255 35 37 1.6 11.3 0.00 0.66 0.28 100 1017.1
20260902171124 34 9 3.2 11.3 0.00 0.66 0.28 100 1017.2
20260902170755 34 9 3.2 11.3 0.00 0.66 0.28 100 1017.2
20260902170255 32 26 9.7 12.9 0.00 0.66 0.28 100 1017.4
20260902170037 32 59 4.8 11.3 0.00 0.66 0.28 100 1017.5
20260902165755 32 59 4.8 11.3 0.00 0.66 0.28 100 1017.5
20260902165255 32 22 9.7 11.3 0.00 0.66 0.28 100 1017.5
20260902164755 35 50 6.4 14.5 0.00 0.66 0.28 100 1017.6
20260902164255 35 336 3.2 14.5 0.00 0.66 0.28 100 1017.7
20260902164012 32 2 9.7 14.5 0.03 0.66 0.28 100 1017.8
20260902163755 32 2 9.7 14.5 0.03 0.66 0.28 100 1017.8
20260902163255 30 2 4.8 12.9 0.05 0.66 0.28 100 1017.7
20260902163134 31 11 11.3 19.3 0.13 0.66 0.28 100 1017.7
20260902162755 31 11 11.3 19.3 0.13 0.66 0.28 100 1017.7
20260902162255 32 14 9.7 19.3 0.23 0.66 0.28 100 1017.7
20260902162126 33 355 12.9 20.9 0.25 0.66 0.28 100 1017.7
20260902161755 33 355 12.9 20.9 0.25 0.66 0.28 100 1017.7
20260902161255 33 7 11.3 16.1 0.25 0.66 0.28 100 1017.8
20260902161113 32 299 1.6 19.3 0.25 0.66 0.28 100 1017.9
20260902160755 32 299 1.6 19.3 0.25 0.66 0.28 100 1017.9
20260902160255 33 347 14.5 17.7 0.25 0.66 0.28 100 1018.0
20260902160111 31 358 8.0 14.5 0.25 0.66 0.28 100 1018.0
20260902155755 31 358 8.0 14.5 0.25 0.66 0.28 100 1018.0
20260902155255 30 1 4.8 14.5 0.25 0.66 0.28 100 1017.9
20260902154755 31 340 3.2 11.3 0.25 0.66 0.28 100 1018.0
20260902154256 32 15 8.0 9.7 0.25 0.66 0.28 100 1017.9
20260902154036 31 4 0.0 0.0 0.23 0.64 0.25 100 1018.0
20260902153756 31 4 0.0 0.0 0.23 0.64 0.25 100 1018.0
20260902153256 28 4 0.0 6.4 0.20 0.61 0.23 100 1018.1
20260902153126 28 70 3.2 14.5 0.13 0.53 0.15 100 1018.1
20260902152756 28 70 3.2 14.5 0.13 0.53 0.15 100 1018.1
20260902152256 30 0 6.4 14.5 0.00 0.41 0.03 100 1018.1
20260902151756 33 358 3.2 9.7 0.00 0.41 0.03 100 1018.2
20260902151256 32 19 4.8 4.8 0.00 0.41 0.03 100 1018.1
20260902150948 32 29 3.2 11.3 0.00 0.41 0.03 100 1018.1
20260902150756 32 29 3.2 11.3 0.00 0.41 0.03 100 1018.1
20260902150256 33 49 4.8 8.0 0.00 0.41 0.03 100 1018.0
20260902145756 32 85 4.8 8.0 0.00 0.41 0.03 100 1018.0
20260902145256 33 113 4.8 6.4 0.00 0.41 0.03 100 1018.0
20260902144756 33 12 0.0 4.8 0.00 0.41 0.03 100 1018.0
20260902144256 31 14 3.2 8.0 0.00 0.41 0.03 100 1018.0
20260902144007 32 54 8.0 11.3 0.00 0.41 0.03 100 1017.9
20260902143756 32 54 8.0 11.3 0.00 0.41 0.03 100 1017.9
20260902143256 35 4 0.0 6.4 0.00 0.41 0.03 100 1017.8
20260902142756 34 60 0.0 8.0 0.00 0.41 0.03 100 1017.8
20260902142623 31 78 3.2 9.7 0.00 0.41 0.03 100 1017.8
20260902142256 31 78 3.2 9.7 0.00 0.41 0.03 100 1017.8
20260902142011 35 106 6.4 9.7 0.00 0.41 0.03 100 1017.8
20260902141756 35 106 6.4 9.7 0.00 0.41 0.03 100 1017.8
20260902141256 35 25 1.6 9.7 0.00 0.41 0.03 100 1017.8
20260902141028 35 54 0.0 6.4 0.00 0.41 0.03 100 1017.8
20260902140758 35 54 0.0 6.4 0.00 0.41 0.03 100 1017.8
20260902140540 32 8 1.6 11.3 0.00 0.41 0.03 100 1017.9
20260902140256 32 8 1.6 11.3 0.00 0.41 0.03 100 1017.9
20260902135756 34 18 4.8 14.5 0.00 0.41 0.03 100 1017.9
20260902135536 38 73 0.0 9.7 0.00 0.41 0.03 100 1017.9
20260902135256 38 73 0.0 9.7 0.00 0.41 0.03 100 1017.9
20260902135141 38 358 6.4 11.3 0.00 0.41 0.03 100 1017.8
20260902134756 38 358 6.4 11.3 0.00 0.41 0.03 100 1017.8
20260902134256 37 23 0.0 4.8 0.00 0.41 0.03 100 1017.8
20260902134124 37 53 3.2 12.9 0.00 0.41 0.03 100 1017.9
20260902133756 37 53 3.2 12.9 0.00 0.41 0.03 100 1017.9
20260902133654 36 12 11.3 11.3 0.00 0.41 0.03 100 1017.9
20260902133256 36 12 11.3 11.3 0.00 0.41 0.03 100 1017.9
20260902133013 35 36 4.8 11.3 0.00 0.41 0.03 100 1017.9
20260902132756 35 36 4.8 11.3 0.00 0.41 0.03 100 1017.9
20260902132256 35 49 6.4 11.3 0.00 0.41 0.03 100 1017.8
20260902132002 33 63 0.0 11.3 0.00 0.41 0.03 100 1017.8
20260902131756 33 63 0.0 11.3 0.00 0.41 0.03 100 1017.8
20260902131256 33 46 6.4 12.9 0.00 0.41 0.03 100 1017.8
20260902130756 33 40 3.2 8.0 0.00 0.41 0.03 100 1017.8
20260902130256 32 85 3.2 11.3 0.00 0.41 0.03 100 1017.9
20260902125756 32 42 6.4 11.3 0.00 0.41 0.03 100 1017.8
20260902125256 32 23 8.0 11.3 0.00 0.41 0.03 100 1017.9
20260902125044 31 22 3.2 9.7 0.00 0.41 0.03 100 1017.9
20260902124756 31 22 3.2 9.7 0.00 0.41 0.03 100 1017.9
20260902124506 30 19 8.0 9.7 0.00 0.41 0.03 100 1017.8
20260902124256 30 19 8.0 9.7 0.00 0.41 0.03 100 1017.8
20260902123929 27 323 4.8 11.3 0.00 0.41 0.03 100 1017.7
20260902123756 27 323 4.8 11.3 0.00 0.41 0.03 100 1017.7
20260902123600 26 28 1.6 9.7 0.00 0.41 0.03 100 1017.7
20260902123256 26 28 1.6 9.7 0.00 0.41 0.03 100 1017.7
20260902122756 26 4 4.8 4.8 0.00 0.41 0.03 100 1017.6
20260902122256 26 49 0.0 6.4 0.00 0.41 0.03 100 1017.5
20260902121756 26 12 4.8 8.0 0.00 0.41 0.03 100 1017.5
20260902121256 25 23 6.4 9.7 0.00 0.41 0.03 100 1017.5
20260902120756 25 14 3.2 8.0 0.00 0.41 0.03 100 1017.5
20260902120535 25 358 3.2 6.4 0.00 0.41 0.03 100 1017.4
20260902120257 25 358 3.2 6.4 0.00 0.41 0.03 100 1017.4
20260902115756 25 358 3.2 3.2 0.00 0.41 0.03 100 1017.4
20260902115257 25 14 0.0 3.2 0.00 0.41 0.03 100 1017.3
20260902114757 25 0 0.0 0.0 0.00 0.41 0.03 100 1017.3
20260902114257 25 0 0.0 3.2 0.00 0.41 0.03 100 1017.3
20260902114054 25 11 0.0 3.2 0.00 0.41 0.03 100 1017.4
20260902113757 25 11 0.0 3.2 0.00 0.41 0.03 100 1017.4
20260902113609 24 22 0.0 0.0 0.00 0.41 0.03 100 1017.4
20260902113257 24 22 0.0 0.0 0.00 0.41 0.03 100 1017.4
20260902113016 24 22 0.0 0.0 0.00 0.41 0.03 100 1017.4
20260902112757 24 22 0.0 0.0 0.00 0.41 0.03 100 1017.4
20260902112535 24 22 0.0 0.0 0.00 0.41 0.03 100 1017.4
20260902112257 24 22 0.0 0.0 0.00 0.41 0.03 100 1017.4
20260902111757 24 22 0.0 0.0 0.00 0.41 0.03 100 1017.3
20260902111257 24 22 0.0 0.0 0.00 0.41 0.03 100 1017.4
20260902110757 24 22 0.0 0.0 0.00 0.41 0.03 100 1017.3
20260902110257 24 22 0.0 0.0 0.03 0.41 0.03 100 1017.2
20260902105757 24 22 0.0 0.0 0.03 0.41 0.03 100 1017.3
20260902105257 24 22 0.0 0.0 0.03 0.41 0.03 100 1017.2
20260902105025 24 22 0.0 0.0 0.03 0.41 0.03 100 1017.2
20260902104757 24 22 0.0 0.0 0.03 0.41 0.03 100 1017.2
20260902104257 24 22 0.0 0.0 0.03 0.41 0.03 100 1017.0
20260902103757 24 22 0.0 0.0 0.03 0.41 0.03 100 1017.0
20260902103257 24 22 0.0 0.0 0.03 0.41 0.03 100 1016.9
20260902103212 24 22 0.0 0.0 0.03 0.41 0.03 100 1016.9
20260902102757 24 22 0.0 0.0 0.03 0.41 0.03 100 1016.9
20260902102702 24 22 0.0 0.0 0.03 0.41 0.03 100 1016.9
20260902102257 24 22 0.0 0.0 0.03 0.41 0.03 100 1016.9
20260902101757 24 22 0.0 0.0 0.03 0.41 0.03 100 1016.8
20260902101525 24 22 0.0 0.0 0.03 0.41 0.03 100 1016.8
20260902101257 24 22 0.0 0.0 0.03 0.41 0.03 100 1016.8
20260902101116 24 22 0.0 0.0 0.03 0.41 0.03 100 1016.9
20260902100757 24 22 0.0 0.0 0.03 0.41 0.03 100 1016.9
20260902100450 24 22 0.0 0.0 0.00 0.38 0.00 100 1016.9
20260902100257 24 22 0.0 0.0 0.00 0.38 0.00 100 1016.9
20260902100009 24 22 0.0 0.0 0.00 0.38 0.00 100 1016.8
20260902095757 24 22 0.0 0.0 0.00 0.38 0.00 100 1016.8
20260902095528 24 22 0.0 0.0 0.00 0.38 0.00 100 1016.8
20260902095257 24 22 0.0 0.0 0.00 0.38 0.00 100 1016.8
20260902094757 24 22 0.0 0.0 0.00 0.38 0.00 100 1016.7
20260902094257 24 22 0.0 0.0 0.00 0.38 0.00 100 1016.6
20260902093757 24 22 0.0 0.0 0.00 0.38 0.00 100 1016.6
20260902093257 24 22 0.0 0.0 0.00 0.38 0.00 100 1016.5
20260902092757 25 22 0.0 0.0 0.00 0.38 0.00 100 1016.5
20260902092257 25 22 0.0 0.0 0.00 0.38 0.00 100 1016.5
20260902091757 25 22 0.0 0.0 0.00 0.38 0.00 100 1016.6
20260902091257 24 22 0.0 0.0 0.00 0.38 0.00 100 1016.6
20260902091115 25 22 0.0 0.0 0.00 0.38 0.00 100 1016.5
20260902090757 25 22 0.0 0.0 0.00 0.38 0.00 100 1016.5
20260902090412 25 22 0.0 0.0 0.00 0.38 0.00 100 1016.4
20260902090257 25 22 0.0 0.0 0.00 0.38 0.00 100 1016.4
20260902085757 25 22 0.0 0.0 0.00 0.38 0.00 100 1016.4
20260902085257 25 22 0.0 0.0 0.00 0.38 0.00 100 1016.3
20260902085037 25 22 0.0 0.0 0.00 0.38 0.00 100 1016.3
20260902084934 25 22 0.0 0.0 0.00 0.38 0.00 100 1016.3
20260902084757 25 22 0.0 0.0 0.00 0.38 0.00 100 1016.3
20260902084350 25 22 0.0 0.0 0.00 0.38 0.00 100 1016.3
20260902084257 25 22 0.0 0.0 0.00 0.38 0.00 100 1016.3
20260902083757 25 22 0.0 0.0 0.00 0.38 0.00 100 1016.3
20260902083451 25 22 0.0 0.0 0.00 0.38 0.00 100 1016.3
20260902083341 25 22 0.0 0.0 0.00 0.38 0.00 100 1016.3
20260902083257 25 22 0.0 0.0 0.00 0.38 0.00 100 1016.3
20260902082757 25 22 0.0 0.0 0.00 0.38 0.00 100 1016.3
20260902082257 25 22 0.0 0.0 0.00 0.38 0.00 100 1016.4
20260902082058 25 22 0.0 0.0 0.00 0.38 0.00 100 1016.4
20260902081757 25 22 0.0 0.0 0.00 0.38 0.00 100 1016.4
20260902081535 25 22 0.0 0.0 0.00 0.38 0.00 100 1016.4
20260902081257 25 22 0.0 0.0 0.00 0.38 0.00 100 1016.4
20260902080757 25 22 0.0 0.0 0.00 0.38 0.00 100 1016.3
20260902080511 25 22 0.0 4.8 0.00 0.38 0.00 100 1016.2
20260902080257 25 22 0.0 4.8 0.00 0.38 0.00 100 1016.2
20260902075758 25 5 0.0 0.0 0.00 0.38 0.00 100 1016.3
20260902075258 25 5 0.0 0.0 0.00 0.38 0.00 100 1016.3
20260902075040 25 5 0.0 0.0 0.00 0.38 0.00 100 1016.3
20260902074930 25 5 0.0 0.0 0.00 0.38 0.00 100 1016.3
20260902074758 25 5 0.0 0.0 0.00 0.38 0.00 100 1016.3
20260902074258 25 5 0.0 3.2 0.00 0.38 0.00 100 1016.3
20260902073758 25 16 0.0 0.0 0.00 0.38 0.00 100 1016.3
20260902073258 25 16 0.0 0.0 0.00 0.38 0.00 100 1016.3
20260902073017 25 16 0.0 0.0 0.00 0.38 0.00 100 1016.4
20260902072758 25 16 0.0 0.0 0.00 0.38 0.00 100 1016.4
20260902072258 25 16 0.0 0.0 0.00 0.38 0.00 100 1016.4
20260902072119 25 16 0.0 3.2 0.00 0.38 0.00 100 1016.4
20260902072041 25 16 0.0 3.2 0.00 0.38 0.00 100 1016.4
20260902071758 25 16 0.0 3.2 0.00 0.38 0.00 100 1016.4
20260902071258 25 1 0.0 0.0 0.00 0.38 0.00 100 1016.4
20260902070859 25 1 0.0 0.0 0.00 0.38 0.00 100 1016.4
20260902070758 25 1 0.0 0.0 0.00 0.38 0.00 100 1016.4
20260902070258 25 1 0.0 0.0 0.00 0.38 0.00 100 1016.4
20260902070103 25 1 0.0 0.0 0.00 0.38 0.00 100 1016.4
20260902065914 25 1 0.0 0.0 0.00 0.38 0.00 100 1016.4
20260902065758 25 1 0.0 0.0 0.00 0.38 0.00 100 1016.4
20260902065258 25 1 0.0 1.6 0.00 0.38 0.00 100 1016.5
20260902064758 25 15 0.0 4.8 0.00 0.38 0.00 100 1016.4
20260902064258 25 35 0.0 8.0 0.00 0.38 0.00 100 1016.4
20260902064124 25 8 3.2 6.4 0.00 0.38 0.00 100 1016.5
20260902063758 25 8 3.2 6.4 0.00 0.38 0.00 100 1016.5
20260902063258 25 21 0.0 0.0 0.00 0.38 0.00 100 1016.6
20260902062758 25 21 0.0 3.2 0.00 0.38 0.00 100 1016.6
20260902062623 25 16 0.0 0.0 0.00 0.38 0.00 100 1016.7
20260902062258 25 16 0.0 0.0 0.00 0.38 0.00 100 1016.7
20260902062122 25 16 0.0 0.0 0.00 0.38 0.00 100 1016.8
20260902061758 25 16 0.0 0.0 0.00 0.38 0.00 100 1016.8
20260902061620 25 16 0.0 0.0 0.00 0.38 0.00 100 1016.9
20260902061538 25 16 0.0 0.0 0.00 0.38 0.00 100 1016.9
20260902061258 25 16 0.0 0.0 0.00 0.38 0.00 100 1016.9
20260902061120 25 16 0.0 0.0 0.00 0.38 0.00 100 1016.9
20260902060758 25 16 0.0 0.0 0.00 0.38 0.00 100 1016.9
20260902060258 25 16 0.0 0.0 0.00 0.38 0.00 100 1016.9
20260902055758 25 16 0.0 0.0 0.00 0.38 0.00 100 1016.9
20260902055258 25 16 0.0 0.0 0.00 0.38 0.00 100 1017.0
20260902055101 25 16 0.0 0.0 0.00 0.38 0.00 100 1017.0
20260902054758 25 16 0.0 0.0 0.00 0.38 0.00 100 1017.0
20260902054445 25 16 0.0 0.0 0.00 0.38 0.00 100 1017.0
20260902054258 25 16 0.0 0.0 0.00 0.38 0.00 100 1017.1
20260902053758 25 16 0.0 0.0 0.00 0.38 0.00 100 1017.0
20260902053541 25 16 0.0 0.0 0.00 0.38 0.00 100 1017.0
20260902053258 25 16 0.0 0.0 0.00 0.38 0.00 100 1017.0
20260902053129 25 16 0.0 0.0 0.00 0.38 0.00 100 1017.1
20260902052758 25 16 0.0 0.0 0.00 0.38 0.00 100 1017.1
20260902052541 25 16 0.0 0.0 0.00 0.38 0.00 100 1017.1
20260902052258 25 16 0.0 0.0 0.00 0.38 0.00 100 1017.1
20260902051758 25 16 0.0 0.0 0.00 0.38 0.00 100 1017.1
20260902051258 25 16 0.0 0.0 0.00 0.38 0.00 100 1017.1
20260902051024 25 16 0.0 0.0 0.00 0.38 0.00 100 1017.2
20260902050758 25 16 0.0 0.0 0.00 0.38 0.00 100 1017.2
20260902050258 25 16 0.0 1.6 0.00 0.38 0.00 100 1017.3
20260902045758 25 355 0.0 0.0 0.00 0.38 0.00 100 1017.3
20260902045613 25 355 0.0 0.0 0.00 0.38 0.38 100 1017.4
20260902045258 25 355 0.0 0.0 0.00 0.38 0.38 100 1017.4
20260902045025 25 355 0.0 0.0 0.00 0.38 0.38 100 1017.5
20260902044758 25 355 0.0 0.0 0.00 0.38 0.38 100 1017.5
20260902044258 25 355 0.0 0.0 0.00 0.38 0.38 100 1017.4
20260902043758 25 355 0.0 1.6 0.00 0.38 0.38 100 1017.4
20260902043455 25 351 1.6 1.6 0.00 0.38 0.38 100 1017.4
20260902043258 25 351 1.6 1.6 0.00 0.38 0.38 100 1017.4
20260902043125 25 264 0.0 0.0 0.00 0.38 0.38 100 1017.4
20260902042758 25 264 0.0 0.0 0.00 0.38 0.38 100 1017.4
20260902042258 26 264 0.0 0.0 0.00 0.38 0.38 100 1017.5
20260902041940 26 264 0.0 0.0 0.00 0.38 0.38 100 1017.5
20260902041758 25 264 0.0 0.0 0.00 0.38 0.38 100 1017.4
20260902041519 26 264 0.0 0.0 0.00 0.38 0.38 100 1017.4
20260902041258 26 264 0.0 0.0 0.00 0.38 0.38 100 1017.4
20260902041038 26 264 0.0 0.0 0.00 0.38 0.38 100 1017.5
20260902040758 26 264 0.0 0.0 0.00 0.38 0.38 100 1017.5
20260902040259 26 264 0.0 0.0 0.00 0.38 0.38 100 1017.5
20260902040032 26 264 0.0 0.0 0.00 0.38 0.38 100 1017.6
20260902035759 26 264 0.0 0.0 0.00 0.38 0.38 100 1017.6
20260902035259 26 264 0.0 0.0 0.00 0.38 0.38 100 1017.6
20260902035037 26 264 0.0 0.0 0.00 0.38 0.38 100 1017.7
20260902034759 26 264 0.0 0.0 0.00 0.38 0.38 100 1017.7
20260902034259 26 264 0.0 0.0 0.00 0.38 0.38 100 1017.7
20260902033923 26 264 0.0 0.0 0.00 0.38 0.38 100 1017.8
20260902033759 26 264 0.0 0.0 0.00 0.38 0.38 100 1017.8
20260902033413 26 264 0.0 0.0 0.00 0.38 0.38 100 1017.9
20260902033259 26 264 0.0 0.0 0.00 0.38 0.38 100 1017.9
20260902032759 26 264 0.0 0.0 0.00 0.38 0.38 100 1017.9
20260902032259 26 264 0.0 0.0 0.00 0.38 0.38 100 1018.0
20260902032014 26 264 0.0 0.0 0.00 0.38 0.38 100 1018.1
20260902031759 26 264 0.0 0.0 0.00 0.38 0.38 100 1018.1
20260902031259 26 264 0.0 0.0 0.00 0.38 0.38 100 1018.2
20260902031129 26 264 0.0 0.0 0.00 0.38 0.38 100 1018.2
20260902030759 26 264 0.0 0.0 0.00 0.38 0.38 100 1018.2
20260902030259 26 264 0.0 0.0 0.00 0.38 0.38 100 1018.2
20260902030042 26 264 0.0 0.0 0.00 0.38 0.38 100 1018.2
20260902025759 26 264 0.0 0.0 0.00 0.38 0.38 100 1018.2
20260902025527 26 264 0.0 0.0 0.00 0.38 0.38 100 1018.2
20260902025259 26 264 0.0 0.0 0.00 0.38 0.38 100 1018.2
20260902025126 26 264 0.0 0.0 0.00 0.38 0.38 100 1018.2
20260902024759 26 264 0.0 0.0 0.00 0.38 0.38 100 1018.2
20260902024259 26 264 0.0 0.0 0.03 0.38 0.38 100 1018.2
20260902023759 26 264 0.0 0.0 0.03 0.38 0.38 100 1018.2
20260902023259 26 264 0.0 0.0 0.03 0.38 0.38 100 1018.2
20260902023131 26 264 0.0 0.0 0.03 0.38 0.38 100 1018.1
20260902022759 26 264 0.0 0.0 0.03 0.38 0.38 100 1018.1
20260902022259 26 264 0.0 0.0 0.03 0.38 0.38 100 1018.1
20260902022126 26 264 0.0 0.0 0.03 0.38 0.38 100 1018.2
20260902021759 26 264 0.0 0.0 0.03 0.38 0.38 100 1018.2
20260902021259 26 264 0.0 0.0 0.03 0.38 0.38 100 1018.1
20260902021136 26 264 0.0 0.0 0.03 0.38 0.38 100 1018.1
20260902020759 26 264 0.0 0.0 0.03 0.38 0.38 100 1018.1
20260902020259 26 264 0.0 0.0 0.03 0.38 0.38 100 1018.0
20260902015759 26 264 0.0 0.0 0.03 0.38 0.38 100 1018.0
20260902015306 26 264 0.0 0.0 0.03 0.38 0.38 100 1017.9
20260902015259 26 264 0.0 0.0 0.03 0.38 0.38 100 1017.9
20260902014759 26 264 0.0 0.0 0.03 0.38 0.38 100 1017.9
20260902014259 26 264 0.0 0.0 0.00 0.36 0.36 100 1017.8
20260902014117 26 264 0.0 0.0 0.00 0.36 0.36 100 1017.8
20260902013759 26 264 0.0 0.0 0.00 0.36 0.36 100 1017.8
20260902013259 26 264 0.0 0.0 0.00 0.36 0.36 100 1017.8
20260902013126 26 264 0.0 0.0 0.00 0.36 0.36 100 1017.7
20260902012759 26 264 0.0 0.0 0.00 0.36 0.36 100 1017.7
20260902012259 26 264 0.0 0.0 0.00 0.36 0.36 100 1017.7
20260902011759 26 264 0.0 0.0 0.00 0.36 0.36 100 1017.7
20260902011259 26 264 0.0 0.0 0.00 0.36 0.36 100 1017.7
20260902011102 26 264 0.0 0.0 0.00 0.36 0.36 100 1017.8
20260902010759 26 264 0.0 0.0 0.00 0.36 0.36 100 1017.8
20260902010259 26 264 0.0 0.0 0.00 0.36 0.36 100 1017.8
20260902010129 26 264 0.0 0.0 0.00 0.36 0.36 100 1017.8
20260902005759 26 264 0.0 0.0 0.00 0.36 0.36 100 1017.8
20260902005259 26 264 0.0 0.0 0.00 0.36 0.36 100 1017.5
20260902005201 26 264 0.0 0.0 0.00 0.36 0.36 100 1017.6
20260902004759 26 264 0.0 0.0 0.00 0.36 0.36 100 1017.6
20260902004259 26 264 0.0 0.0 0.00 0.36 0.36 100 1017.6
20260902004127 26 264 0.0 0.0 0.00 0.36 0.36 100 1017.6
20260902003759 26 264 0.0 0.0 0.00 0.36 0.36 100 1017.6
20260902003259 26 264 0.0 0.0 0.00 0.36 0.36 100 1017.6
20260902003042 26 264 0.0 0.0 0.00 0.36 0.36 100 1017.8
20260902002759 26 264 0.0 0.0 0.00 0.36 0.36 100 1017.8
20260902002259 26 264 0.0 0.0 0.00 0.36 0.36 100 1017.9
20260902002057 26 264 0.0 0.0 0.00 0.36 0.36 100 1017.9
20260902001759 26 264 0.0 0.0 0.00 0.36 0.36 100 1017.9
20260902001259 26 264 0.0 0.0 0.00 0.36 0.36 100 1017.8
20260902000759 26 264 0.0 0.0 0.00 0.36 0.36 100 1017.8
20260902000259 26 264 0.0 0.0 0.00 0.36 0.36 100 1017.8
20260901235800 26 264 0.0 0.0 0.00 0.46 0.36 100 1017.7
20260901235300 26 264 0.0 0.0 0.00 0.46 0.36 100 1017.7
20260901234800 26 264 0.0 4.8 0.00 0.46 0.36 100 1017.7
20260901234300 26 241 0.0 4.8 0.00 0.46 0.36 100 1017.6
20260901234046 26 196 0.0 3.2 0.00 0.46 0.36 100 1017.4
20260901233800 26 196 0.0 3.2 0.00 0.46 0.36 100 1017.4
20260901233300 26 187 0.0 3.2 0.00 0.46 0.36 100 1017.3
20260901233002 26 225 0.0 4.8 0.00 0.46 0.36 100 1017.4
20260901232800 26 225 0.0 4.8 0.00 0.46 0.36 100 1017.4
20260901232300 26 257 3.2 3.2 0.00 0.46 0.36 100 1017.5
20260901232046 26 133 0.0 0.0 0.00 0.46 0.36 100 1017.5
20260901231800 26 133 0.0 0.0 0.00 0.46 0.36 100 1017.5
20260901231300 26 133 0.0 0.0 0.00 0.46 0.36 100 1017.3
20260901230800 26 133 0.0 6.4 0.00 0.46 0.36 100 1017.1
20260901230300 26 158 1.6 6.4 0.00 0.46 0.36 100 1017.0
20260901225953 26 130 1.6 8.0 0.00 0.46 0.36 100 1017.0
20260901225800 26 130 1.6 8.0 0.00 0.46 0.36 100 1017.0
20260901225300 26 102 4.8 8.0 0.00 0.46 0.36 100 1016.9
20260901225127 26 133 6.4 9.7 0.00 0.46 0.36 100 1016.8
20260901224800 26 133 6.4 9.7 0.00 0.46 0.36 100 1016.8
20260901224300 26 149 8.0 9.7 0.00 0.46 0.36 100 1016.8
20260901224112 26 80 3.2 8.0 0.00 0.46 0.36 100 1016.9
20260901223800 26 80 3.2 8.0 0.00 0.46 0.36 100 1016.9
20260901223300 26 90 4.8 11.3 0.00 0.46 0.36 100 1016.8
20260901223131 26 135 3.2 11.3 0.00 0.46 0.36 100 1016.7
20260901222800 26 135 3.2 11.3 0.00 0.46 0.36 100 1016.7
20260901222300 26 98 4.8 9.7 0.00 0.46 0.36 100 1016.9
20260901222130 26 98 8.0 16.1 0.00 0.46 0.36 100 1017.0
20260901221800 26 98 8.0 16.1 0.00 0.46 0.36 100 1017.0
20260901221300 26 94 6.4 14.5 0.00 0.46 0.36 100 1017.1
20260901221130 27 99 6.4 20.9 0.00 0.46 0.36 100 1017.1
20260901220800 27 99 6.4 20.9 0.00 0.46 0.36 100 1017.1
20260901220300 27 106 4.8 14.5 0.00 1.17 0.36 100 1017.1
20260901215800 27 154 3.2 8.0 0.00 1.17 0.36 100 1017.0